レモン彗星

C/2022 Y2 ( Lemmon )

English version
Home page
Updated on January 4, 2024

---------------------------------------------------------------------

・ プロフィール

発見日 2022年12月24日
発見光度 20.0等
発見者 Mt. Lemmon Survey

・ 写真集

・ 軌道要素

Epoch 2023 Sept. 13.0 TT = JDT 2460200.5                                        
T 2023 Mar. 22.71195 TT                                 Rudenko                 
q   2.5451071            (2000.0)            P               Q                  
n   0.01128261     Peri.  105.57425     -0.33752468     +0.93018664             
a  19.6877631      Node   216.34991     +0.74309698     +0.35741666             
e   0.8707264      Incl.  165.90683     +0.57782693     +0.08370276             
P  87.4                                                                         
>From 165 observations 2022 Dec. 24-2023 Oct. 9, mean residual 0".6.             

・ 光度変化

        m1 = 13.5 + 5 logΔ + 10.0 log r

---------------------------------------------------------------------

軌道要素はM.P.E.C. 2023-T226に掲載されたものです。
光度グラフはComet for Windowsで作成したものです。

---------------------------------------------------------------------

Copyright(C) Seiichi Yoshida (comet@aerith.net). All rights reserved.